Time,TemperatureF,DewpointF,PressureIn,WindDirection,WindDirectionDegrees,WindSpeedMPH,WindSpeedGustMPH,Humidity,HourlyPrecipIn,Conditions,Clouds,dailyrainin,SoftwareType,DateUTC
2013-11-25 00:05:00,14.9,2.7,29.86,SE,126,3.2,6.7,58,0.00,,,0.00,WUHU216HW,2013-11-25 05:05:00,
2013-11-25 00:20:00,14.8,2.6,29.86,ESE,116,2.8,9.8,58,0.00,,,0.00,WUHU216HW,2013-11-25 05:20:00,
2013-11-25 00:35:00,14.6,2.4,29.87,East,97,2.5,6.7,58,0.00,,,0.00,WUHU216HW,2013-11-25 05:35:00,
2013-11-25 00:50:00,14.4,2.3,29.88,NNW,342,3.5,8.5,58,0.00,,,0.00,WUHU216HW,2013-11-25 05:50:00,
2013-11-25 01:05:00,14.0,1.9,29.88,West,264,3.8,9.8,58,0.00,,,0.00,WUHU216HW,2013-11-25 06:05:00,
2013-11-25 01:20:00,14.0,2.4,29.88,NE,41,2.9,13.0,59,0.00,,,0.00,WUHU216HW,2013-11-25 06:20:00,
2013-11-25 01:35:00,14.0,2.4,29.88,ESE,110,2.1,4.9,59,0.00,,,0.00,WUHU216HW,2013-11-25 06:35:00,
2013-11-25 01:50:00,14.0,2.4,29.88,West,268,2.1,6.3,59,0.00,,,0.00,WUHU216HW,2013-11-25 06:50:00,
2013-11-25 02:06:00,14.4,3.1,29.89,WNW,293,2.2,8.3,60,0.00,,,0.00,WUHU216HW,2013-11-25 07:06:00,
2013-11-25 02:21:00,14.0,2.7,29.87,WSW,248,3.0,8.7,60,0.00,,,0.00,WUHU216HW,2013-11-25 07:21:00,
2013-11-25 02:36:00,14.0,2.7,29.87,East,85,4.1,8.1,60,0.00,,,0.00,WUHU216HW,2013-11-25 07:36:00,
2013-11-25 02:51:00,14.0,2.7,29.86,NE,46,4.0,11.9,60,0.00,,,0.00,WUHU216HW,2013-11-25 07:51:00,
2013-11-25 03:06:00,14.0,2.4,29.86,ENE,63,2.4,6.7,59,0.00,,,0.00,WUHU216HW,2013-11-25 08:06:00,
2013-11-25 03:21:00,14.2,2.1,29.88,South,171,3.3,7.8,58,0.00,,,0.00,WUHU216HW,2013-11-25 08:21:00,
2013-11-25 03:36:00,14.4,2.3,29.88,South,178,2.7,7.8,58,0.00,,,0.00,WUHU216HW,2013-11-25 08:36:00,
2013-11-25 03:51:00,14.6,1.3,29.87,WSW,253,3.6,11.6,55,0.00,,,0.00,WUHU216HW,2013-11-25 08:51:00,
2013-11-25 04:06:00,14.4,1.4,29.88,WNW,302,4.2,10.5,56,0.00,,,0.00,WUHU216HW,2013-11-25 09:06:00,
2013-11-25 04:21:00,14.4,0.6,29.88,West,276,7.3,15.7,54,0.00,,,0.00,WUHU216HW,2013-11-25 09:21:00,
2013-11-25 04:36:00,14.6,0.8,29.88,West,264,6.4,15.0,54,0.00,,,0.00,WUHU216HW,2013-11-25 09:36:00,
2013-11-25 04:51:00,14.8,1.5,29.88,West,278,4.1,13.4,55,0.00,,,0.00,WUHU216HW,2013-11-25 09:51:00,
2013-11-25 05:06:00,15.3,1.9,29.88,ENE,61,3.6,9.8,55,0.00,,,0.00,WUHU216HW,2013-11-25 10:06:00,
2013-11-25 05:21:00,15.7,1.5,29.88,East,100,2.5,10.3,53,0.00,,,0.00,WUHU216HW,2013-11-25 10:21:00,
2013-11-25 05:36:00,16.0,1.4,29.89,ENE,64,2.3,8.9,52,0.00,,,0.00,WUHU216HW,2013-11-25 10:36:00,
2013-11-25 05:51:00,16.4,0.5,29.89,WNW,282,3.4,11.0,49,0.00,,,0.00,WUHU216HW,2013-11-25 10:51:00,
2013-11-25 06:06:00,16.6,0.3,29.90,WSW,255,5.9,14.5,48,0.00,,,0.00,WUHU216HW,2013-11-25 11:06:00,
2013-11-25 06:21:00,16.6,0.3,29.91,WNW,283,7.8,15.0,48,0.00,,,0.00,WUHU216HW,2013-11-25 11:21:00,
2013-11-25 06:36:00,15.8,0.5,29.92,West,268,8.1,19.7,50,0.00,,,0.00,WUHU216HW,2013-11-25 11:36:00,
2013-11-25 06:51:00,16.2,1.3,29.93,WNW,295,4.1,10.7,51,0.00,,,0.00,WUHU216HW,2013-11-25 11:51:00,
2013-11-25 07:06:00,15.8,0.9,29.94,NE,42,2.8,7.2,51,0.00,,,0.00,WUHU216HW,2013-11-25 12:06:00,
2013-11-25 07:21:00,16.0,1.4,29.95,East,91,2.9,5.1,52,0.00,,,0.00,WUHU216HW,2013-11-25 12:21:00,
2013-11-25 07:36:00,16.4,1.5,29.96,SE,135,2.8,6.7,51,0.00,,,0.00,WUHU216HW,2013-11-25 12:36:00,
2013-11-25 07:51:00,16.2,1.3,29.97,SW,234,4.2,9.8,51,0.00,,,0.00,WUHU216HW,2013-11-25 12:51:00,
2013-11-25 08:06:00,16.2,1.6,29.97,SSE,163,1.4,3.1,52,0.00,,,0.00,WUHU216HW,2013-11-25 13:06:00,
2013-11-25 08:21:00,17.6,3.0,29.97,SSE,148,1.4,4.5,52,0.00,,,0.00,WUHU216HW,2013-11-25 13:21:00,
2013-11-25 08:36:00,19.4,5.0,29.98,SE,133,1.1,3.4,53,0.00,,,0.00,WUHU216HW,2013-11-25 13:36:00,
2013-11-25 08:51:00,20.7,5.8,29.99,South,184,2.1,6.3,52,0.00,,,0.00,WUHU216HW,2013-11-25 13:51:00,
2013-11-25 09:06:00,21.4,5.1,30.00,WSW,254,3.7,10.3,49,0.00,,,0.00,WUHU216HW,2013-11-25 14:06:00,
2013-11-25 09:21:00,22.3,5.5,30.00,West,271,4.4,9.8,48,0.00,,,0.00,WUHU216HW,2013-11-25 14:21:00,
2013-11-25 09:36:00,23.2,6.0,30.00,West,260,3.7,9.6,47,0.00,,,0.00,WUHU216HW,2013-11-25 14:36:00,
2013-11-25 09:51:00,23.4,5.6,30.00,West,262,4.0,12.1,46,0.00,,,0.00,WUHU216HW,2013-11-25 14:51:00,
2013-11-25 10:06:00,23.4,5.6,30.02,West,271,3.1,8.3,46,0.00,,,0.00,WUHU216HW,2013-11-25 15:06:00,
2013-11-25 10:21:00,23.9,6.0,30.02,WSW,254,3.6,8.5,46,0.00,,,0.00,WUHU216HW,2013-11-25 15:21:00,
2013-11-25 10:36:00,23.9,5.1,30.01,West,262,3.1,9.2,44,0.00,,,0.00,WUHU216HW,2013-11-25 15:36:00,
2013-11-25 10:51:00,24.7,6.2,30.01,West,261,2.9,7.2,45,0.00,,,0.00,WUHU216HW,2013-11-25 15:51:00,
2013-11-25 11:06:00,25.2,6.8,30.01,West,261,2.5,7.2,45,0.00,,,0.00,WUHU216HW,2013-11-25 16:06:00,
2013-11-25 11:21:00,25.6,6.0,30.01,WSW,244,2.7,12.8,43,0.00,,,0.00,WUHU216HW,2013-11-25 16:21:00,
2013-11-25 11:36:00,26.3,5.8,30.00,SW,220,1.9,7.6,41,0.00,,,0.00,WUHU216HW,2013-11-25 16:36:00,
2013-11-25 11:51:00,27.0,6.4,30.00,South,169,2.1,4.7,41,0.00,,,0.00,WUHU216HW,2013-11-25 16:51:00,
2013-11-25 12:06:00,27.7,6.0,30.00,South,189,2.4,5.6,39,0.00,,,0.00,WUHU216HW,2013-11-25 17:06:00,
2013-11-25 12:21:00,27.5,5.1,30.00,SSW,197,2.5,5.8,38,0.00,,,0.00,WUHU216HW,2013-11-25 17:21:00,
2013-11-25 12:36:00,27.5,4.5,30.00,South,174,2.9,5.4,37,0.00,,,0.00,WUHU216HW,2013-11-25 17:36:00,
2013-11-25 12:51:00,27.4,4.3,30.00,South,172,2.9,6.7,37,0.00,,,0.00,WUHU216HW,2013-11-25 17:51:00,
2013-11-25 13:06:00,27.5,2.6,30.00,SSE,168,3.4,7.6,34,0.00,,,0.00,WUHU216HW,2013-11-25 18:06:00,
2013-11-25 13:21:00,27.0,1.5,30.00,South,180,3.2,7.8,33,0.00,,,0.00,WUHU216HW,2013-11-25 18:21:00,
2013-11-25 13:36:00,27.0,2.8,30.00,SSW,198,2.9,6.3,35,0.00,,,0.00,WUHU216HW,2013-11-25 18:36:00,
2013-11-25 13:51:00,26.8,2.6,30.00,SSW,200,2.8,6.9,35,0.00,,,0.00,WUHU216HW,2013-11-25 18:51:00,
2013-11-25 14:06:00,27.0,4.1,30.00,SW,217,3.1,6.9,37,0.00,,,0.00,WUHU216HW,2013-11-25 19:06:00,
2013-11-25 14:21:00,27.0,4.1,29.99,West,261,3.9,8.7,37,0.00,,,0.00,WUHU216HW,2013-11-25 19:21:00,
2013-11-25 14:36:00,27.2,4.8,30.00,West,278,2.7,8.7,38,0.00,,,0.00,WUHU216HW,2013-11-25 19:36:00,
2013-11-25 14:51:00,27.4,5.6,30.00,West,276,3.1,6.7,39,0.00,,,0.00,WUHU216HW,2013-11-25 19:51:00,
2013-11-25 15:06:00,28.1,6.8,30.00,WSW,252,1.4,3.4,40,0.00,,,0.00,WUHU216HW,2013-11-25 20:06:00,
2013-11-25 15:21:00,28.4,6.6,30.00,WSW,255,2.3,7.6,39,0.00,,,0.00,WUHU216HW,2013-11-25 20:21:00,
2013-11-25 15:36:00,28.3,7.0,29.99,West,274,2.8,7.6,40,0.00,,,0.00,WUHU216HW,2013-11-25 20:36:00,
2013-11-25 15:51:00,27.9,6.8,29.98,East,90,2.1,7.4,40,0.00,,,0.00,WUHU216HW,2013-11-25 20:51:00,
2013-11-25 16:06:00,27.4,6.8,29.99,SE,124,1.9,5.6,41,0.00,,,0.00,WUHU216HW,2013-11-25 21:06:00,
2013-11-25 16:21:00,27.2,7.0,30.00,West,262,1.4,3.1,42,0.00,,,0.00,WUHU216HW,2013-11-25 21:21:00,
2013-11-25 16:36:00,26.8,7.2,30.00,West,267,0.9,2.5,43,0.00,,,0.00,WUHU216HW,2013-11-25 21:36:00,
2013-11-25 16:51:00,26.5,6.8,30.00,West,274,0.5,1.3,43,0.00,,,0.00,WUHU216HW,2013-11-25 21:51:00,
2013-11-25 17:06:00,26.3,7.2,30.00,West,278,1.0,1.8,44,0.00,,,0.00,WUHU216HW,2013-11-25 22:06:00,
2013-11-25 17:21:00,25.7,7.7,30.00,West,281,1.1,3.1,46,0.00,,,0.00,WUHU216HW,2013-11-25 22:21:00,
2013-11-25 17:36:00,25.4,7.4,30.00,WNW,282,1.5,2.2,46,0.00,,,0.00,WUHU216HW,2013-11-25 22:36:00,
2013-11-25 17:51:00,25.0,7.6,30.00,West,273,1.0,2.2,47,0.00,,,0.00,WUHU216HW,2013-11-25 22:51:00,
2013-11-25 18:06:00,24.8,7.8,30.01,West,275,1.5,3.4,48,0.00,,,0.00,WUHU216HW,2013-11-25 23:06:00,
2013-11-25 18:21:00,24.8,7.8,30.02,West,278,1.1,2.5,48,0.00,,,0.00,WUHU216HW,2013-11-25 23:21:00,
2013-11-25 18:36:00,24.8,7.8,30.01,West,280,1.3,2.9,48,0.00,,,0.00,WUHU216HW,2013-11-25 23:36:00,
2013-11-25 18:51:00,24.8,7.8,30.00,West,278,0.7,1.8,48,0.00,,,0.00,WUHU216HW,2013-11-25 23:51:00,
2013-11-25 19:06:00,24.7,7.7,30.00,NNE,21,0.4,0.7,48,0.00,,,0.00,WUHU216HW,2013-11-26 00:06:00,
2013-11-25 19:21:00,24.5,8.0,30.00,WNW,292,0.9,1.3,49,0.00,,,0.00,WUHU216HW,2013-11-26 00:21:00,
2013-11-25 19:36:00,24.1,8.2,30.00,SSE,151,0.5,1.1,50,0.00,,,0.00,WUHU216HW,2013-11-26 00:36:00,
2013-11-25 19:51:00,24.3,8.4,30.00,North,0,0.0,0.0,50,0.00,,,0.00,WUHU216HW,2013-11-26 00:51:00,
2013-11-25 20:06:00,24.3,8.7,30.00,North,0,0.0,0.0,51,0.00,,,0.00,WUHU216HW,2013-11-26 01:06:00,
2013-11-25 20:21:00,24.3,9.2,29.99,West,270,0.7,1.1,52,0.00,,,0.00,WUHU216HW,2013-11-26 01:21:00,
2013-11-25 20:36:00,24.3,9.2,29.99,South,186,0.4,1.1,52,0.00,,,0.00,WUHU216HW,2013-11-26 01:36:00,
2013-11-25 20:51:00,24.5,9.7,29.97,West,268,1.2,1.8,53,0.00,,,0.00,WUHU216HW,2013-11-26 01:51:00,
2013-11-25 21:06:00,24.5,9.7,29.98,NW,312,0.7,1.1,53,0.00,,,0.00,WUHU216HW,2013-11-26 02:06:00,
2013-11-25 21:21:00,24.7,10.4,29.98,NNE,33,0.4,0.7,54,0.00,,,0.00,WUHU216HW,2013-11-26 02:21:00,
2013-11-25 21:36:00,24.5,10.2,29.97,ENE,63,0.8,1.1,54,0.00,,,0.00,WUHU216HW,2013-11-26 02:36:00,
2013-11-25 21:51:00,24.7,10.7,29.97,North,0,0.0,0.0,55,0.00,,,0.00,WUHU216HW,2013-11-26 02:51:00,
2013-11-25 22:06:00,24.8,10.9,29.97,NW,315,0.2,0.2,55,0.00,,,0.00,WUHU216HW,2013-11-26 03:06:00,
2013-11-25 22:21:00,24.8,11.4,29.96,North,0,0.0,0.0,56,0.00,,,0.00,WUHU216HW,2013-11-26 03:21:00,
2013-11-25 22:36:00,24.8,11.7,29.97,North,0,0.0,0.0,57,0.00,,,0.00,WUHU216HW,2013-11-26 03:36:00,
2013-11-25 22:51:00,25.0,11.9,29.97,West,270,1.0,1.8,57,0.00,,,0.00,WUHU216HW,2013-11-26 03:51:00,
2013-11-25 23:06:00,25.2,12.4,29.96,NNW,331,0.3,0.4,58,0.00,,,0.00,WUHU216HW,2013-11-26 04:06:00,
2013-11-25 23:21:00,25.2,12.4,29.96,West,268,0.6,1.1,58,0.00,,,0.00,WUHU216HW,2013-11-26 04:21:00,
2013-11-25 23:36:00,25.2,12.4,29.95,West,267,1.1,2.5,58,0.00,,,0.00,WUHU216HW,2013-11-26 04:36:00,
2013-11-25 23:51:00,25.6,13.2,29.95,WNW,289,1.4,2.7,59,0.00,,,0.00,WUHU216HW,2013-11-26 04:51:00,